When you browse on this site, cookies collect data to enhance your experience and personalize the content and advertising you see.
Visit our Privacy Policy to learn more. By continuing to use the site, you agree to this use of cookies and data.
  • Em Portugal
  • Lista de países
  • Para 7 dias
  • Temperatura da água
  • Mapa do tempo
  • Widgets de tempo
  • user-avatar
    Iniciar Sessão

    Previsão horária em Verhniy Katruh

    Hoje, 21 Agosto, Quarta-feira

    Tempo Temperatura Precipitação Vento Pressão Humidade
    00:00 +13°C° 0 mm 1 m/s 590 mmHg 69%
    01:00 +13°C° 0 mm 1 m/s 590 mmHg 69%
    02:00 +13°C° 0 mm 1 m/s 590 mmHg 68%
    03:00 +12°C° 0 mm 1 m/s 589 mmHg 67%
    04:00 +13°C° 0 mm 1 m/s 590 mmHg 65%
    05:00 +14°C° 0 mm 1 m/s 590 mmHg 62%
    06:00 +14°C° 0 mm 1 m/s 590 mmHg 60%
    07:00 +16°C° 0 mm 1 m/s 591 mmHg 53%
    08:00 +20°C° 0 mm 1 m/s 592 mmHg 47%
    09:00 +22°C° 0 mm 1 m/s 594 mmHg 40%
    10:00 +23°C° 0 mm 2 m/s 594 mmHg 40%
    11:00 +24°C° 0 mm 2 m/s 594 mmHg 40%
    12:00 +24°C° 0 mm 3 m/s 594 mmHg 40%
    13:00 +24°C° 0.1 mm 3 m/s 593 mmHg 42%
    14:00 +24°C° 0.1 mm 3 m/s 593 mmHg 43%
    15:00 +22°C° 0.1 mm 3 m/s 592 mmHg 45%
    16:00 +21°C° 0 mm 2 m/s 592 mmHg 50%
    17:00 +20°C° 0 mm 2 m/s 591 mmHg 55%
    18:00 +20°C° 0 mm 1 m/s 590 mmHg 60%
    19:00 +18°C° 0 mm 1 m/s 589 mmHg 62%
    20:00 +16°C° 0 mm 1 m/s 589 mmHg 64%
    21:00 +14°C° 0 mm 1 m/s 588 mmHg 66%
    22:00 +14°C° 0 mm 1 m/s 588 mmHg 67%
    23:00 +14°C° 0 mm 1 m/s 588 mmHg 67%

    Amanhã, 22 Agosto, Quinta-feira

    Tempo Temperatura Precipitação Vento Pressão Humidade
    00:00 +13°C° 0 mm 1 m/s 588 mmHg 68%
    01:00 +13°C° 0 mm 1 m/s 588 mmHg 68%
    02:00 +13°C° 0 mm 1 m/s 587 mmHg 68%
    03:00 +13°C° 0 mm 1 m/s 587 mmHg 69%
    04:00 +13°C° 0 mm 1 m/s 587 mmHg 68%
    05:00 +14°C° 0 mm 1 m/s 588 mmHg 66%
    06:00 +14°C° 0 mm 1 m/s 588 mmHg 65%
    07:00 +18°C° 0 mm 1 m/s 589 mmHg 58%
    08:00 +20°C° 0 mm 1 m/s 590 mmHg 50%
    09:00 +22°C° 0 mm 1 m/s 591 mmHg 42%
    10:00 +23°C° 0 mm 2 m/s 591 mmHg 42%
    11:00 +23°C° 0 mm 2 m/s 591 mmHg 42%
    12:00 +24°C° 0 mm 3 m/s 591 mmHg 42%
    13:00 +24°C° 0.1 mm 3 m/s 591 mmHg 42%
    14:00 +24°C° 0.1 mm 3 m/s 591 mmHg 42%
    15:00 +22°C° 0.1 mm 3 m/s 590 mmHg 43%
    16:00 +21°C° 0.1 mm 2 m/s 590 mmHg 48%
    17:00 +20°C° 0.1 mm 2 m/s 589 mmHg 53%
    18:00 +19°C° 0.1 mm 1 m/s 589 mmHg 58%
    19:00 +18°C° 0 mm 1 m/s 588 mmHg 59%
    20:00 +15°C° 0 mm 1 m/s 588 mmHg 61%
    21:00 +14°C° 0 mm 1 m/s 587 mmHg 62%
    22:00 +13°C° 0 mm 1 m/s 587 mmHg 63%
    23:00 +13°C° 0 mm 1 m/s 587 mmHg 63%

    Depois de amanhã, 23 Agosto, Sexta-feira

    Tempo Temperatura Precipitação Vento Pressão Humidade
    00:00 +13°C° 0 mm 1 m/s 587 mmHg 64%
    01:00 +13°C° 0 mm 1 m/s 587 mmHg 63%
    02:00 +13°C° 0 mm 1 m/s 587 mmHg 63%
    03:00 +12°C° 0 mm 1 m/s 587 mmHg 63%
    04:00 +13°C° 0 mm 1 m/s 587 mmHg 62%
    05:00 +13°C° 0 mm 1 m/s 588 mmHg 62%
    06:00 +14°C° 0 mm 1 m/s 588 mmHg 61%
    07:00 +16°C° 0 mm 1 m/s 589 mmHg 54%
    08:00 +19°C° 0 mm 1 m/s 590 mmHg 47%
    09:00 +20°C° 0 mm 2 m/s 591 mmHg 40%
    10:00 +21°C° 0 mm 2 m/s 591 mmHg 39%
    11:00 +22°C° 0 mm 3 m/s 591 mmHg 38%
    12:00 +24°C° 0 mm 3 m/s 592 mmHg 37%
    13:00 +24°C° 0.1 mm 3 m/s 591 mmHg 37%
    14:00 +24°C° 0.1 mm 3 m/s 591 mmHg 38%
    15:00 +22°C° 0.1 mm 3 m/s 591 mmHg 39%
    16:00 +21°C° 0 mm 2 m/s 590 mmHg 45%
    17:00 +20°C° 0 mm 2 m/s 590 mmHg 51%
    18:00 +19°C° 0 mm 1 m/s 589 mmHg 57%
    19:00 +18°C° 0 mm 1 m/s 589 mmHg 58%
    20:00 +15°C° 0 mm 1 m/s 588 mmHg 60%
    21:00 +14°C° 0 mm 1 m/s 588 mmHg 61%
    22:00 +13°C° 0 mm 1 m/s 588 mmHg 61%
    23:00 +13°C° 0 mm 1 m/s 588 mmHg 61%

    24 Agosto, Sábado

    Tempo Temperatura Precipitação Vento Pressão Humidade
    00:00 +13°C° 0 mm 1 m/s 588 mmHg 62%
    01:00 +13°C° 0 mm 1 m/s 587 mmHg 62%
    02:00 +13°C° 0 mm 1 m/s 587 mmHg 63%
    03:00 +12°C° 0 mm 1 m/s 587 mmHg 63%
    04:00 +13°C° 0 mm 1 m/s 587 mmHg 61%
    05:00 +13°C° 0 mm 1 m/s 588 mmHg 60%
    06:00 +14°C° 0 mm 1 m/s 588 mmHg 58%
    07:00 +16°C° 0 mm 1 m/s 589 mmHg 50%
    08:00 +19°C° 0 mm 1 m/s 590 mmHg 42%
    09:00 +21°C° 0 mm 2 m/s 592 mmHg 35%
    10:00 +21°C° 0 mm 2 m/s 592 mmHg 35%
    11:00 +22°C° 0 mm 3 m/s 592 mmHg 36%
    12:00 +22°C° 0 mm 4 m/s 592 mmHg 37%
    13:00 +22°C° 0.2 mm 3 m/s 592 mmHg 39%
    14:00 +22°C° 0.2 mm 3 m/s 591 mmHg 40%
    15:00 +21°C° 0.2 mm 2 m/s 591 mmHg 42%
    16:00 +20°C° 0.2 mm 2 m/s 590 mmHg 48%
    17:00 +20°C° 0.2 mm 1 m/s 590 mmHg 55%
    18:00 +18°C° 0.2 mm 1 m/s 589 mmHg 61%
    19:00 +16°C° 0 mm 1 m/s 589 mmHg 62%
    20:00 +15°C° 0 mm 1 m/s 589 mmHg 63%
    21:00 +13°C° 0 mm 1 m/s 589 mmHg 65%
    22:00 +13°C° 0 mm 1 m/s 589 mmHg 64%
    23:00 +13°C° 0 mm 1 m/s 589 mmHg 64%

    25 Agosto, Domingo

    Tempo Temperatura Precipitação Vento Pressão Humidade
    00:00 +13°C° 0 mm 1 m/s 589 mmHg 64%
    01:00 +13°C° 0.1 mm 1 m/s 589 mmHg 66%
    02:00 +13°C° 0.1 mm 1 m/s 589 mmHg 69%
    03:00 +13°C° 0.1 mm 2 m/s 589 mmHg 71%
    04:00 +13°C° 0.1 mm 1 m/s 589 mmHg 72%
    05:00 +13°C° 0.1 mm 1 m/s 589 mmHg 74%
    06:00 +13°C° 0.1 mm 1 m/s 589 mmHg 75%
    07:00 +15°C° 0 mm 1 m/s 590 mmHg 69%
    08:00 +16°C° 0 mm 2 m/s 591 mmHg 62%
    09:00 +18°C° 0 mm 2 m/s 591 mmHg 56%
    10:00 +18°C° 0.4 mm 2 m/s 591 mmHg 53%
    11:00 +19°C° 0.4 mm 3 m/s 591 mmHg 51%
    12:00 +19°C° 0.4 mm 3 m/s 592 mmHg 49%
    13:00 +20°C° 0.2 mm 3 m/s 591 mmHg 47%
    14:00 +20°C° 0.2 mm 3 m/s 591 mmHg 46%
    15:00 +20°C° 0.2 mm 3 m/s 591 mmHg 45%
    16:00 +19°C° 0 mm 2 m/s 590 mmHg 49%
    17:00 +17°C° 0 mm 2 m/s 590 mmHg 54%
    18:00 +16°C° 0 mm 1 m/s 589 mmHg 58%
    19:00 +15°C° 0 mm 1 m/s 589 mmHg 59%
    20:00 +13°C° 0 mm 1 m/s 588 mmHg 59%
    21:00 +12°C° 0 mm 1 m/s 588 mmHg 60%
    22:00 +12°C° 0 mm 1 m/s 588 mmHg 59%
    23:00 +11°C° 0 mm 1 m/s 588 mmHg 58%

    26 Agosto, Segunda-feira

    Tempo Temperatura Precipitação Vento Pressão Humidade
    00:00 +11°C° 0 mm 1 m/s 588 mmHg 57%
    01:00 +11°C° 0 mm 1 m/s 588 mmHg 55%
    02:00 +11°C° 0 mm 1 m/s 587 mmHg 54%
    03:00 +11°C° 0 mm 1 m/s 587 mmHg 52%
    04:00 +11°C° 0 mm 1 m/s 588 mmHg 54%
    05:00 +12°C° 0 mm 1 m/s 588 mmHg 57%
    06:00 +12°C° 0 mm 1 m/s 588 mmHg 59%
    07:00 +14°C° 0 mm 1 m/s 589 mmHg 54%
    08:00 +16°C° 0 mm 1 m/s 590 mmHg 50%
    09:00 +19°C° 0 mm 1 m/s 591 mmHg 45%
    10:00 +19°C° 0.1 mm 2 m/s 592 mmHg 45%
    11:00 +20°C° 0.1 mm 2 m/s 592 mmHg 45%
    12:00 +21°C° 0.1 mm 2 m/s 592 mmHg 45%
    13:00 +20°C° 0.5 mm 2 m/s 592 mmHg 48%
    14:00 +19°C° 0.5 mm 2 m/s 591 mmHg 51%
    15:00 +19°C° 0.5 mm 2 m/s 591 mmHg 54%
    16:00 +18°C° 0.3 mm 2 m/s 591 mmHg 60%
    17:00 +16°C° 0.3 mm 1 m/s 590 mmHg 66%
    18:00 +15°C° 0.3 mm 1 m/s 590 mmHg 72%
    19:00 +14°C° 0.1 mm 1 m/s 590 mmHg 75%
    20:00 +13°C° 0.1 mm 1 m/s 590 mmHg 78%
    21:00 +12°C° 0.1 mm 1 m/s 590 mmHg 81%
    22:00 +12°C° 0 mm 1 m/s 590 mmHg 81%
    23:00 +12°C° 0 mm 1 m/s 590 mmHg 80%
    Mostrar mais